[[{"header":{"parameterUnit":"m.s-1","parameterCategory":1,"la1":30.2991,"la2":30.254,"lo1":-89.0895,"lo2":-89.0444,"dy":0.0017,"dx":0.0017,"nx":28,"ny":28,"refTime":"2025-08-17T09:00:00:Z","depth":0,"parameterNumber":2,"parameterNumberName":"U-component_of_WINDS"},"data":[0,0,0,0,0,0,0,0,0,0,0,0,0,0,0,0,0,0,0,0,0,0,0,0,0,0,0,0,0,0,0,0,0,0,0,0,0,0,0,0,0,0,0,0,0,0,0,0,0,0,0,0,0,0,0,0,0,0,0.2284,0.2284,0,0.2244,0.2243,0.2243,0.2221,0.2221,0.2221,0.2221,0.2177,0.2176,0.2175,0,0,0,0,0,0,0,0,0,0,0,0,0,0.2341,0.234,0.2285,0.2284,0.2283,0.2244,0.2243,0.2243,0.2221,0.2221,0.2221,0.2221,0.2178,0.2176,0.2175,0,0,0,0,0,0,0,0,0,0,0,0,0,0.231,0.234,0.2285,0.2268,0.2266,0.2244,0.2243,0.2242,0.2221,0.2221,0.2221,0.2221,0.2178,0.2176,0.2175,0.2165,0,0,0.217,0.2169,0,0,0,0,0,0,0,0,0.2312,0.2308,0.2271,0.2269,0.2267,0.2237,0.2247,0.2217,0.2221,0.2238,0.2221,0.2221,0.2197,0.2194,0.2186,0.2163,0.2161,0.2169,0.2168,0.2168,0.2167,0,0,0,0,0,0,0,0.2314,0.231,0.2268,0.227,0.2268,0.2262,0.2257,0.2241,0.2218,0.2237,0.2235,0.2231,0.2196,0.2188,0.2185,0.2161,0.2169,0.2168,0.2167,0.2166,0.2126,0.2126,0,0,0,0,0,0,0.2319,0.2311,0.227,0.2267,0.229,0.2261,0.2256,0.2247,0.2219,0.2214,0.2231,0.223,0.2191,0.2187,0.2183,0.217,0.2168,0.2166,0.2165,0.2126,0.2126,0.2126,0,0,0,0,0,0,0.232,0.2316,0.2271,0.2289,0.2283,0.226,0.225,0.2246,0.2238,0.2214,0.221,0.2227,0.2191,0.2186,0.217,0.2168,0.2165,0.2164,0.2126,0.2126,0.2126,0.2143,0,0,0,0,0,0,0.2322,0.2316,0.2313,0.2289,0.2282,0.2259,0.225,0.2245,0.2235,0.2234,0.2209,0.2205,0.219,0.2172,0.2168,0.2165,0.2162,0.2126,0.2126,0.2126,0.2142,0.2143,0.2144,0,0,0,0,0,0.2324,0.2319,0.2313,0.2308,0.2278,0.2259,0.2255,0.2239,0.2235,0.2232,0.2216,0.2206,0.2169,0.2171,0.2166,0.2163,0.2126,0.2126,0.2126,0.2142,0.2143,0.2144,0,0,0,0,0,0,0.2343,0.2316,0.2309,0.2296,0.228,0.2256,0.225,0.2241,0.2225,0.2224,0.2204,0.2198,0.2184,0.2172,0.2175,0.2151,0.2146,0.2145,0.216,0.2161,0.2162,0.2165,0.2161,0,0,0,0,0,0.2346,0.2334,0.231,0.2301,0.2294,0.2273,0.2265,0.2254,0.2236,0.2229,0.2212,0.2195,0.2179,0.2169,0.2154,0.214,0.2134,0.2135,0.2136,0.2137,0.2136,0.2127,0.2127,0.2126,0.2126,0.2126,0,0,0.2352,0.2335,0.2329,0.2305,0.2291,0.2278,0.2268,0.2255,0.2245,0.2227,0.2211,0.2198,0.2177,0.2162,0.2154,0.2151,0.2135,0.2137,0.2138,0.2136,0.2127,0.2127,0.2127,0.2126,0.2126,0.2126,0,0,0.2355,0.2342,0.2333,0.2319,0.2299,0.2285,0.2283,0.2259,0.225,0.2233,0.2219,0.2206,0.218,0.2166,0.2155,0.2152,0.2141,0.2147,0.2152,0.2143,0.2143,0.2143,0.2141,0.214,0.2146,0.2146,0.2146,0,0.2365,0.2346,0.2329,0.2316,0.2306,0.2289,0.2279,0.2266,0.2241,0.2234,0.2231,0.2197,0.2182,0.2162,0.2161,0.2153,0.2149,0.215,0.2144,0.2144,0.2144,0.2141,0.2141,0.2147,0.2147,0.2147,0.2147,0,0.2357,0.2344,0.2339,0.2316,0.2304,0.2293,0.2274,0.2264,0.2253,0.224,0.2222,0.2203,0.2183,0.2177,0.2167,0.2156,0.2155,0.2148,0.2143,0.2145,0.2142,0.2141,0.2148,0.2148,0.2148,0.2147,0,0,0.2373,0.234,0.2338,0.2327,0.2303,0.2291,0.2279,0.2259,0.2251,0.2234,0.2222,0.22,0.2193,0.2181,0.2168,0.2161,0.2158,0.2155,0.2154,0.2155,0.2143,0.2148,0.2148,0.2151,0.2151,0.2151,0.2145,0,0.2372,0.2349,0.2333,0.2316,0.2303,0.2287,0.2275,0.2259,0.2245,0.2231,0.2216,0.22,0.2193,0.2185,0.2177,0.216,0.2155,0.216,0.2139,0.2138,0.2144,0.2146,0.2152,0.2147,0.2144,0.2144,0.2144,0,0.2369,0.2353,0.2335,0.2311,0.2305,0.2295,0.2275,0.2262,0.2242,0.2233,0.2219,0.2206,0.219,0.2186,0.2164,0.2168,0.2158,0.2148,0.2148,0.2145,0.2141,0.2143,0.2145,0.2145,0.2142,0.2142,0.2142,0,0.2381,0.2355,0.234,0.2331,0.2303,0.2296,0.2284,0.2264,0.2253,0.2236,0.2228,0.2209,0.2198,0.2183,0.2164,0.2163,0.2143,0.2138,0.2134,0.2134,0.213,0.2131,0.2131,0.2125,0.2125,0.2125,0.2125,0,0.2382,0.2371,0.2345,0.2336,0.2323,0.2304,0.2291,0.2278,0.226,0.2247,0.2231,0.2219,0.2196,0.2181,0.2166,0.2149,0.2145,0.2136,0.2132,0.2137,0.2138,0.213,0.213,0.2125,0.2125,0.2125,0.2125,0,0.2393,0.2375,0.2358,0.2333,0.2326,0.2318,0.2295,0.2285,0.2271,0.2255,0.225,0.2226,0.2208,0.2188,0.2162,0.2152,0.2136,0.2131,0.2143,0.214,0.2137,0.2137,0.2132,0.2129,0.2126,0.2126,0.2126,0,0.2395,0.2386,0.236,0.2351,0.2339,0.2324,0.2312,0.2293,0.2281,0.2257,0.225,0.223,0.2213,0.2184,0.2164,0.2144,0.2138,0.2137,0.2135,0.2139,0.2137,0.2137,0.2136,0.2138,0.2138,0.2138,0.2138,0,0.24,0.2391,0.2375,0.2357,0.2343,0.2328,0.2311,0.2304,0.2281,0.2268,0.2249,0.2236,0.221,0.219,0.2167,0.2153,0.2141,0.2139,0.2137,0.2142,0.2149,0.2144,0.2144,0.2139,0.2139,0.2139,0.2139,0.2139,0.2405,0.2397,0.2377,0.236,0.2345,0.233,0.2319,0.2302,0.2286,0.2264,0.2253,0.2234,0.2212,0.2181,0.2167,0.2151,0.2147,0.2144,0.2144,0.2143,0.2144,0.2152,0.2146,0.2146,0.2146,0.2146,0.2146,0,0.2409,0.2395,0.2379,0.2357,0.2343,0.2334,0.2314,0.2303,0.2286,0.2268,0.2251,0.2229,0.2209,0.2187,0.2166,0.2157,0.215,0.2152,0.2152,0.2148,0.2149,0.2152,0.2157,0.2157,0.2157,0.2157,0.2157,0.2157,0.2409,0.2393,0.2382,0.2358,0.2344,0.2325,0.2315,0.23,0.2285,0.2261,0.2244,0.223,0.221,0.2187,0.2168,0.2162,0.2154,0.2157,0.2149,0.2149,0.2149,0.2148,0.2151,0.2155,0.2155,0.215,0.215,0.215]},{"header":{"parameterUnit":"m.s-1","parameterCategory":1,"la1":30.2991,"la2":30.254,"lo1":-89.0895,"lo2":-89.0444,"dy":0.0017,"dx":0.0017,"nx":28,"ny":28,"refTime":"2025-08-17T09:00:00:Z","depth":0,"parameterNumber":3,"parameterNumberName":"V-component_of_WINDS"},"data":[0,0,0,0,0,0,0,0,0,0,0,0,0,0,0,0,0,0,0,0,0,0,0,0,0,0,0,0,0,0,0,0,0,0,0,0,0,0,0,0,0,0,0,0,0,0,0,0,0,0,0,0,0,0,0,0,0,0,-1.5836,-1.5837,0,-1.589,-1.589,-1.5891,-1.59,-1.5899,-1.5899,-1.5899,-1.5955,-1.5957,-1.5959,0,0,0,0,0,0,0,0,0,0,0,0,0,-1.5745,-1.5747,-1.5836,-1.5837,-1.5838,-1.5889,-1.589,-1.5891,-1.59,-1.5899,-1.5899,-1.5898,-1.5955,-1.5957,-1.5959,0,0,0,0,0,0,0,0,0,0,0,0,0,-1.579,-1.5748,-1.5836,-1.5848,-1.585,-1.5889,-1.589,-1.5891,-1.59,-1.5899,-1.5899,-1.5898,-1.5954,-1.5957,-1.5959,-1.5991,0,0,-1.5968,-1.597,0,0,0,0,0,0,0,0,-1.5788,-1.5794,-1.5846,-1.5848,-1.585,-1.5887,-1.5879,-1.5925,-1.59,-1.5881,-1.5899,-1.5898,-1.5933,-1.5938,-1.5949,-1.5994,-1.5996,-1.5969,-1.597,-1.5972,-1.5972,0,0,0,0,0,0,0,-1.5785,-1.5792,-1.5857,-1.5847,-1.5849,-1.5852,-1.5858,-1.5888,-1.5911,-1.5883,-1.5884,-1.589,-1.5934,-1.5947,-1.5951,-1.5997,-1.5968,-1.5971,-1.5973,-1.5974,-1.607,-1.6071,0,0,0,0,0,0,-1.5779,-1.5789,-1.5856,-1.5859,-1.5816,-1.5854,-1.5861,-1.5876,-1.591,-1.5915,-1.589,-1.589,-1.5942,-1.5947,-1.5953,-1.5992,-1.5972,-1.5974,-1.5976,-1.607,-1.6071,-1.6071,0,0,0,0,0,0,-1.5777,-1.5785,-1.5854,-1.5824,-1.5833,-1.5857,-1.5874,-1.5877,-1.589,-1.5916,-1.592,-1.5898,-1.5942,-1.5949,-1.5981,-1.5994,-1.5976,-1.5978,-1.6069,-1.607,-1.6071,-1.607,0,0,0,0,0,0,-1.5774,-1.5784,-1.5796,-1.5824,-1.5835,-1.588,-1.5875,-1.5879,-1.5894,-1.5895,-1.5925,-1.5929,-1.5942,-1.5977,-1.5984,-1.5998,-1.598,-1.6068,-1.6069,-1.6071,-1.6069,-1.6071,-1.6073,0,0,0,0,0,-1.5771,-1.5794,-1.5796,-1.5804,-1.5849,-1.5881,-1.5887,-1.5901,-1.5895,-1.5908,-1.5924,-1.5928,-1.5992,-1.598,-1.5989,-1.6003,-1.6067,-1.6069,-1.6071,-1.6068,-1.6071,-1.6073,0,0,0,0,0,0,-1.5766,-1.5798,-1.5801,-1.5833,-1.5854,-1.5883,-1.5898,-1.5903,-1.5926,-1.5926,-1.5942,-1.5949,-1.5981,-1.5996,-1.5982,-1.6036,-1.6029,-1.6033,-1.6024,-1.6027,-1.6029,-1.6024,-1.5983,0,0,0,0,0,-1.5769,-1.5791,-1.5818,-1.5844,-1.5854,-1.5875,-1.5889,-1.5897,-1.592,-1.593,-1.5949,-1.5972,-1.5997,-1.6013,-1.6038,-1.6072,-1.6079,-1.6086,-1.6088,-1.6089,-1.6092,-1.6111,-1.6115,-1.6078,-1.6078,-1.6078,0,0,-1.5775,-1.5795,-1.5808,-1.5844,-1.5861,-1.5884,-1.5882,-1.5907,-1.5925,-1.5934,-1.5965,-1.598,-1.6007,-1.6041,-1.6056,-1.6054,-1.6104,-1.6092,-1.6093,-1.6094,-1.6113,-1.6117,-1.612,-1.6079,-1.6079,-1.6078,0,0,-1.5797,-1.5814,-1.5838,-1.5855,-1.5882,-1.5895,-1.5901,-1.5929,-1.5939,-1.5971,-1.5978,-1.6,-1.6043,-1.6062,-1.6077,-1.6107,-1.6112,-1.6115,-1.6125,-1.6143,-1.6146,-1.6149,-1.6159,-1.6163,-1.6118,-1.6118,-1.6118,0,-1.5801,-1.5835,-1.5849,-1.5874,-1.5889,-1.5899,-1.5923,-1.594,-1.5973,-1.5984,-1.5981,-1.6035,-1.6054,-1.6092,-1.6099,-1.6111,-1.6119,-1.6111,-1.6145,-1.6147,-1.615,-1.616,-1.6164,-1.6118,-1.6118,-1.6118,-1.6118,0,-1.5839,-1.5863,-1.5879,-1.591,-1.5928,-1.5952,-1.5971,-1.5987,-1.5995,-1.6009,-1.6042,-1.6065,-1.6094,-1.6104,-1.6112,-1.6144,-1.6141,-1.6141,-1.6135,-1.6154,-1.6163,-1.6167,-1.6118,-1.6118,-1.6118,-1.6118,0,0,-1.5858,-1.5897,-1.5903,-1.5917,-1.5947,-1.5966,-1.5992,-1.602,-1.6034,-1.6057,-1.6079,-1.6116,-1.6116,-1.6133,-1.6144,-1.616,-1.6182,-1.6158,-1.6159,-1.6161,-1.6218,-1.6217,-1.6222,-1.6186,-1.6187,-1.6187,-1.6216,0,-1.5883,-1.5927,-1.5941,-1.5978,-1.6,-1.601,-1.6032,-1.6054,-1.6068,-1.609,-1.6107,-1.6132,-1.6131,-1.6141,-1.6158,-1.6176,-1.6194,-1.6174,-1.6207,-1.6207,-1.6198,-1.6227,-1.6226,-1.6251,-1.622,-1.6221,-1.6221,0,-1.5918,-1.594,-1.5979,-1.6007,-1.6017,-1.6037,-1.6064,-1.6085,-1.611,-1.6119,-1.6139,-1.6148,-1.6176,-1.6169,-1.6208,-1.6194,-1.6208,-1.6219,-1.6221,-1.6223,-1.6214,-1.6229,-1.626,-1.6263,-1.6227,-1.6227,-1.6226,0,-1.5927,-1.5968,-1.5996,-1.6008,-1.6041,-1.6055,-1.607,-1.6094,-1.611,-1.6135,-1.6145,-1.6173,-1.6188,-1.621,-1.6227,-1.622,-1.6264,-1.6258,-1.6273,-1.6272,-1.628,-1.6279,-1.6313,-1.6291,-1.6291,-1.6291,-1.6291,0,-1.5952,-1.5976,-1.6001,-1.6018,-1.6045,-1.6061,-1.6088,-1.6103,-1.6125,-1.6147,-1.6158,-1.6178,-1.6199,-1.6222,-1.6236,-1.6266,-1.6273,-1.6282,-1.6285,-1.628,-1.6279,-1.6289,-1.6287,-1.6292,-1.6292,-1.6292,-1.6292,0,-1.5966,-1.5984,-1.6015,-1.6044,-1.6052,-1.6071,-1.6096,-1.6114,-1.6129,-1.6156,-1.6164,-1.6188,-1.6216,-1.6235,-1.6271,-1.6281,-1.6313,-1.6316,-1.6304,-1.6305,-1.6318,-1.6316,-1.6358,-1.6364,-1.634,-1.634,-1.634,0,-1.5981,-1.5999,-1.603,-1.6044,-1.6059,-1.6082,-1.6099,-1.6117,-1.6134,-1.6164,-1.6178,-1.6207,-1.6231,-1.6275,-1.6296,-1.6325,-1.6328,-1.6341,-1.6332,-1.6327,-1.6328,-1.6326,-1.6328,-1.6342,-1.6342,-1.6342,-1.6342,0,-1.6004,-1.6012,-1.6035,-1.6061,-1.6081,-1.6102,-1.6124,-1.6136,-1.6158,-1.6177,-1.6205,-1.6223,-1.626,-1.6289,-1.6319,-1.6335,-1.6342,-1.6345,-1.635,-1.6344,-1.6336,-1.634,-1.6306,-1.6344,-1.6343,-1.6343,-1.6343,-1.6343,-1.6019,-1.6035,-1.6059,-1.6084,-1.6103,-1.6123,-1.6141,-1.6159,-1.6182,-1.6213,-1.6223,-1.6252,-1.6278,-1.6319,-1.6336,-1.636,-1.6359,-1.6366,-1.6368,-1.6369,-1.6368,-1.6333,-1.6366,-1.6366,-1.6366,-1.6366,-1.6366,0,-1.6042,-1.6058,-1.6081,-1.6111,-1.6132,-1.6137,-1.6162,-1.6178,-1.6204,-1.6227,-1.625,-1.6283,-1.6311,-1.6335,-1.6364,-1.6379,-1.6383,-1.6386,-1.6384,-1.6388,-1.6368,-1.6361,-1.6382,-1.6382,-1.6382,-1.6382,-1.6382,-1.6382,-1.6057,-1.6085,-1.6096,-1.6133,-1.615,-1.6178,-1.6192,-1.6211,-1.623,-1.6265,-1.6288,-1.6304,-1.6328,-1.6359,-1.6385,-1.6391,-1.6401,-1.6403,-1.641,-1.6391,-1.6389,-1.6387,-1.638,-1.6405,-1.6405,-1.6428,-1.6428,-1.6428]}]]